Time,TemperatureF,DewpointF,PressureIn,WindDirection,WindDirectionDegrees,WindSpeedMPH,WindSpeedGustMPH,Humidity,HourlyPrecipIn,Conditions,Clouds,dailyrainin,SoftwareType,DateUTC
2013-11-16 00:22:00,41.0,36.0,-100.00,South,180,2.0,-999.0,84,-99.99,,,-99.99,,2013-11-16 06:22:00,
2013-11-16 00:52:00,40.0,36.0,-100.00,South,180,2.0,-999.0,87,-99.99,,,-99.99,,2013-11-16 06:52:00,
2013-11-16 01:22:00,39.0,36.0,-100.00,South,180,2.0,-999.0,89,-99.99,,,-99.99,,2013-11-16 07:22:00,
2013-11-16 01:52:00,38.0,36.0,-100.00,South,180,1.0,-999.0,91,-99.99,,,-99.99,,2013-11-16 07:52:00,
2013-11-16 02:22:00,37.0,36.0,-100.00,SE,135,1.0,-999.0,95,-99.99,,,-99.99,,2013-11-16 08:22:00,
2013-11-16 02:52:00,39.0,36.0,-100.00,SSE,158,2.0,-999.0,91,-99.99,,,-99.99,,2013-11-16 08:52:00,
2013-11-16 03:22:00,39.0,37.0,-100.00,South,180,2.0,-999.0,91,-99.99,,,-99.99,,2013-11-16 09:22:00,
2013-11-16 03:53:00,38.0,36.0,-100.00,SW,225,1.0,-999.0,93,-99.99,,,-99.99,,2013-11-16 09:53:00,
2013-11-16 04:23:00,37.0,36.0,-100.00,West,270,1.0,-999.0,97,-99.99,,,-99.99,,2013-11-16 10:23:00,
2013-11-16 04:52:00,37.0,36.0,-100.00,South,180,0.0,-999.0,96,-99.99,,,-99.99,,2013-11-16 10:52:00,
2013-11-16 05:22:00,36.0,36.0,-100.00,SSE,158,1.0,-999.0,99,-99.99,,,-99.99,,2013-11-16 11:22:00,
2013-11-16 05:53:00,36.0,36.0,-100.00,ESE,113,1.0,-999.0,100,-99.99,,,-99.99,,2013-11-16 11:53:00,
2013-11-16 06:21:00,36.0,36.0,-100.00,SSE,158,1.0,-999.0,99,-99.99,,,-99.99,,2013-11-16 12:21:00,
2013-11-16 06:52:00,36.0,36.0,-100.00,West,270,0.0,-999.0,100,-99.99,,,-99.99,,2013-11-16 12:52:00,
2013-11-16 07:22:00,36.0,36.0,-100.00,SSW,203,1.0,-999.0,100,-99.99,,,-99.99,,2013-11-16 13:22:00,
2013-11-16 07:52:00,37.0,37.0,-100.00,WSW,248,1.0,-999.0,100,-99.99,,,-99.99,,2013-11-16 13:52:00,
2013-11-16 08:22:00,37.0,36.0,-100.00,WSW,248,2.0,-999.0,98,-99.99,,,-99.99,,2013-11-16 14:22:00,
2013-11-16 08:52:00,38.0,36.0,-100.00,WNW,293,2.0,-999.0,94,-99.99,,,-99.99,,2013-11-16 14:52:00,
2013-11-16 09:11:00,38.0,36.0,-100.00,West,270,2.0,-999.0,92,-99.99,,,-99.99,,2013-11-16 15:11:00,
2013-11-16 09:21:00,41.0,36.0,-100.00,West,270,4.0,-999.0,84,-99.99,,,-99.99,,2013-11-16 15:21:00,
2013-11-16 10:23:00,49.0,31.0,-100.00,West,270,6.0,-999.0,50,-99.99,,,-99.99,,2013-11-16 16:23:00,
2013-11-16 10:30:00,51.0,27.0,-100.00,West,270,5.0,-999.0,39,-99.99,,,-99.99,,2013-11-16 16:30:00,
2013-11-16 10:53:00,51.0,27.0,-100.00,West,270,5.0,-999.0,39,-99.99,,,-99.99,,2013-11-16 16:53:00,
2013-11-16 11:02:00,51.0,27.0,-100.00,West,270,5.0,-999.0,39,-99.99,,,-99.99,,2013-11-16 17:02:00,
2013-11-16 11:12:00,51.0,27.0,-100.00,West,270,5.0,-999.0,39,-99.99,,,-99.99,,2013-11-16 17:12:00,
2013-11-16 11:22:00,51.0,27.0,-100.00,West,270,5.0,-999.0,39,-99.99,,,-99.99,,2013-11-16 17:22:00,